Regional Weather Roundup
Issued by NWS Glasgow, MT

Home | Current Version | Previous Version | Text Only | Print | Product List | Glossary On
Versions: 1 2 3 4 5 6 7 8 9 10 11 12 13 14 15 16 17 18 19 20 21 22 23 24 25 26 27 28 29 30 31 32 33 34 35 36 37 38 39 40 41 42 43 44 45 46 47 48 49 50
000
ASUS45 KGGW 051615
RWRGGW
HOURLY REGIONAL WEATHER ROUNDUP FOR NORTHEAST MONTANA
NATIONAL WEATHER SERVICE GLASGOW MONTANA
900 AM MST MON DEC 05 2016

NOTE: "FAIR" INDICATES FEW OR NO CLOUDS BELOW 12,000 FEET WITH NO
SIGNIFICANT WEATHER AND/OR OBSTRUCTIONS TO VISISBILITY.

NORTHEAST MONTANA


CITY           SKY/WX    TMP DP  RH WIND       PRES   REMARKS
GLASGOW        LGT SNOW  14  10  84 NW31G43   29.83R FOG     WCI  -7
PLENTYWOOD       N/A     20  19  96 NW22G33     N/A
WOLF POINT     LGT SNOW  22  15  75 NW22G30   29.80R
JORDAN           N/A     20  16  84 NW22G30   29.83R
WINNETT          N/A     19  11  70 W21G31      N/A
SIDNEY         FLURRIES  23  18  81 NW22G31   29.70R
GLENDIVE       CLOUDY    21  16  81 NW15G28   29.74R
MALTA            N/A     14   6  70 NW15G26     N/A  WCI  -1

FORT PECK REPORTS


CITY           SKY/WX    TMP DP  RH WIND       PRES   REMARKS
FORT PECK        N/A     18  16  92 NW26G35     N/A  WCI  -1
THE PINES        N/A     18  15  88 NW3G15      N/A

SOUTHEAST MONTANA


CITY           SKY/WX    TMP DP  RH WIND       PRES   REMARKS
BILLINGS       CLOUDY    21   8  57 N5        29.85R
MILES CITY     CLOUDY    23  13  65 NW26G33   29.80R
BAKER          CLOUDY    22  16  78 NW28G40   29.65F
LIVINGSTON     CLOUDY    17   8  67 NW16      29.86R

CENTRAL MONTANA


CITY           SKY/WX    TMP DP  RH WIND       PRES   REMARKS
HAVRE          CLOUDY     8   1  73 NW16      30.03R WCI -10
LEWISTOWN      FLURRIES  10   6  84 NW14G22   29.89R WCI  -6
GREAT FALLS    CLOUDY    13   8  81 NW12      29.97R WCI  -1
CUT BANK       CLOUDY     6   1  80 NW18      29.97R HAZE    WCI -13
HELENA         LGT SNOW  19  14  81 W6        29.95R
BUTTE          CLOUDY    14   2  58 NW8       29.87R
BOZEMAN        CLOUDY    20  13  74 W5        29.91R

WESTERN MONTANA


CITY           SKY/WX    TMP DP  RH WIND       PRES   REMARKS
MISSOULA       CLOUDY    23  13  65 N5        30.03R
KALISPELL      NOT AVBL

NORTH DAKOTA


CITY           SKY/WX    TMP DP  RH WIND       PRES   REMARKS
WILLISTON      CLOUDY    23  17  78 NW26G35   29.61R BLWGSNOW
DICKINSON      CLOUDY    24  20  84 W29G39    29.56S FOG
MINOT          CLOUDY    22  20  92 CALM      29.54R
BISMARCK       LGT SNOW  29  27  92 W5        29.58R FOG

SOUTHERN SASKATCHEWAN


CITY           SKY/WX    TMP DP  RH WIND       PRES   REMARKS
REGINA         CLOUDY    19  16  86 NW24G31   29.73R
MOOSE JAW      LGT SNOW  16  10  79 NW25G32   29.79R DRFTSNOWWCI  -3
ESTEVAN        SNOW      21  19  93 N8        29.58R VSB 1/2
SWIFT CURRENT  CLOUDY     3   1  92 NW25G32   29.83R WCI -20




USA.gov is the U.S. government's official web portal to all federal, state and local government web resources and services.